Location: Bonnesvalyn
(49.1218°N, 3.3177°E)
Time: 06:00:00
(UTC+00:00)

COSMOS 1275 DEB - Pass Details

Date: 03 March 2024
Orbit: 819 x 896 km, 82.7° (Epoch: 27 April)

Event Time Altitude Azimuth Distance (km) Brightness Sun altitude
Rises 23:24:17 0° 348° (NNW) 3,369 ? -46.6°
Reaches altitude 10° 23:26:42 10° 346° (NNW) 2,428 ? -46.7°
Enters shadow 23:26:43 10° 346° (NNW) 2,422 ? -46.7°
